This is the latest recevied weather packets stored in our database for station/object EB2GLU-13. If no packets are shown the sender has not sent any weather packets the latest 10 day(s).
| Time | Temp. | Humidity | Pressure | Rain* | Wind** | Luminosity | Snow |
|---|---|---|---|---|---|---|---|
| 1777962021 | 10.56° C | 95% | 1013.3 hPa | 5.08 mm | - | - | - |
| 1777960521 | 11.11° C | 95% | 1013.3 hPa | 0.51 mm | - | - | - |
| 1777959771 | 11.11° C | 95% | 1013 hPa | 0.25 mm | - | - | - |
| 1777959021 | 11.11° C | 95% | 1012.9 hPa | 0.25 mm | - | - | - |
| 1777958271 | 11.11° C | 95% | 1013.1 hPa | 0.25 mm | - | - | - |
| 1777957521 | 11.11° C | 94% | 1012.9 hPa | 0.25 mm | - | - | - |
| 1777956771 | 11.11° C | 94% | 1012.9 hPa | 0.25 mm | - | - | - |
| 1777956021 | 11.67° C | 95% | 1013 hPa | 0.25 mm | - | - | - |
| 1777953020 | 11.67° C | 94% | 1013.3 hPa | 0 mm | - | - | - |
| 1777952270 | 11.67° C | 94% | 1013.1 hPa | 0.25 mm | - | - | - |
| 1777951520 | 11.67° C | 94% | 1013.2 hPa | 0.25 mm | - | - | - |
| 1777950770 | 11.67° C | 94% | 1013 hPa | 0.51 mm | - | - | - |
| 1777950020 | 11.67° C | 94% | 1013.2 hPa | 0.76 mm | - | - | - |
| 1777949270 | 11.67° C | 94% | 1013.1 hPa | 0.76 mm | - | - | - |
| 1777948520 | 11.67° C | 93% | 1013.1 hPa | 0.51 mm | - | - | - |
| 1777947770 | 12.22° C | 94% | 1013.2 hPa | 0.51 mm | - | - | - |
| 1777947020 | 11.67° C | 94% | 1013.3 hPa | 0.51 mm | - | - | - |
| 1777946270 | 11.67° C | 94% | 1013.4 hPa | 0.51 mm | - | - | - |
| 1777945520 | 11.67° C | 94% | 1013.6 hPa | 0.51 mm | - | - | - |
| 1777944770 | 11.67° C | 93% | 1013.7 hPa | 0.51 mm | - | - | - |
| 1777944020 | 11.67° C | 93% | 1013.9 hPa | 0.76 mm | - | - | - |
| 1777943270 | 11.67° C | 93% | 1013.8 hPa | 1.27 mm | - | - | - |
| 1777942520 | 11.67° C | 92% | 1013.8 hPa | 1.02 mm | - | - | - |
| 1777941770 | 12.22° C | 92% | 1013.9 hPa | 1.02 mm | - | - | - |
| 1777941020 | 11.67° C | 92% | 1013.9 hPa | 1.02 mm | - | - | - |
* Rain latest hour (hover to see other rain measurements)
** Current wind speed in m/s (hover to see current wind gust speed)